This is the latest recevied weather packets stored in our database for station/object KD9IXX-13. If no packets are shown the sender has not sent any weather packets the latest 10 day(s).
| Time | Temp. | Humidity | Pressure | Rain* | Wind** | Luminosity | Snow |
|---|---|---|---|---|---|---|---|
| 1777836602 | 17.78° C | 50% | 1011.7 hPa | 0 mm | - | 656 W/m² | - |
| 1777836302 | 17.22° C | 51% | 1011.5 hPa | 0 mm | - | 680 W/m² | - |
| 1777836002 | 16.67° C | 53% | 1011.7 hPa | 0 mm | - | 682 W/m² | - |
| 1777835702 | 16.67° C | 53% | 1011.5 hPa | 0 mm | - | 691 W/m² | - |
| 1777835403 | 16.67° C | 54% | 1011.6 hPa | 0 mm | - | 668 W/m² | - |
| 1777835102 | 16.67° C | 55% | 1011.9 hPa | 0 mm | - | 693 W/m² | - |
| 1777834802 | 16.67° C | 53% | 1012 hPa | 0 mm | - | 693 W/m² | - |
| 1777834502 | 16.67° C | 59% | 1011.9 hPa | 0 mm | - | 649 W/m² | - |
| 1777834202 | 15.56° C | 61% | 1012.2 hPa | 0 mm | - | 624 W/m² | - |
| 1777833902 | 15.56° C | 65% | 1012.5 hPa | 0 mm | - | 702 W/m² | - |
| 1777833602 | 15° C | 67% | 1012.3 hPa | 0 mm | - | 658 W/m² | - |
| 1777833302 | 15° C | 71% | 1012.2 hPa | 0 mm | - | 649 W/m² | - |
| 1777833002 | 14.44° C | 72% | 1012.5 hPa | 0 mm | - | 624 W/m² | - |
| 1777832702 | 13.89° C | 75% | 1012.2 hPa | 0 mm | - | 797 W/m² | - |
| 1777832402 | 13.33° C | 75% | 1012.8 hPa | 0 mm | - | 713 W/m² | - |
| 1777832102 | 12.22° C | 77% | 1013.1 hPa | 0 mm | - | 598 W/m² | - |
| 1777831803 | 11.67° C | 78% | 1013.3 hPa | 0 mm | - | 457 W/m² | - |
| 1777831502 | 10.56° C | 80% | 1013.3 hPa | 0 mm | - | 255 W/m² | - |
| 1777831202 | 10° C | 80% | 1013.8 hPa | 0 mm | - | 115 W/m² | - |
| 1777830902 | 10° C | 81% | 1014 hPa | 0 mm | - | 46 W/m² | - |
| 1777830602 | 10° C | 81% | 1014.2 hPa | 0 mm | - | 46 W/m² | - |
| 1777830302 | 10° C | 80% | 1014.6 hPa | 0 mm | - | 47 W/m² | - |
| 1777830002 | 10° C | 81% | 1014.9 hPa | 0 mm | - | 41 W/m² | - |
| 1777829702 | 10° C | 81% | 1015.2 hPa | 0 mm | - | 51 W/m² | - |
| 1777829402 | 10° C | 82% | 1015 hPa | 0 mm | - | 48 W/m² | - |
* Rain latest hour (hover to see other rain measurements)
** Current wind speed in m/s (hover to see current wind gust speed)